This is the latest recevied weather packets stored in our database for station/object DM4WH-13. If no packets are shown the sender has not sent any weather packets the latest 10 day(s).
| Time | Temp. | Humidity | Pressure | Rain* | Wind** | Luminosity | Snow |
|---|---|---|---|---|---|---|---|
| 1777869917 | 13.89° C | 68% | 1014.9 hPa | 0 mm | 0 m/s | - | - |
| 1777869605 | 13.89° C | 67% | 1014.9 hPa | 0 mm | 0 m/s | - | - |
| 1777869317 | 13.89° C | 67% | 1014.8 hPa | 0 mm | 0 m/s | - | - |
| 1777869005 | 13.89° C | 68% | 1014.8 hPa | 0 mm | 0 m/s | - | - |
| 1777868717 | 13.89° C | 69% | 1014.6 hPa | 0 mm | 0 m/s | - | - |
| 1777868405 | 13.89° C | 69% | 1014.7 hPa | 0 mm | 0 m/s | - | - |
| 1777868118 | 13.89° C | 68% | 1014.5 hPa | 0 mm | 0 m/s | - | - |
| 1777867805 | 13.89° C | 69% | 1014.4 hPa | 0 mm | 0 m/s | - | - |
| 1777867530 | 13.89° C | 70% | 1014.5 hPa | 0 mm | 0 m/s | - | - |
| 1777867217 | 13.89° C | 70% | 1014.4 hPa | 0 mm | 0.45 m/s, 228° | - | - |
| 1777866905 | 13.89° C | 65% | 1014.3 hPa | 0 mm | 0 m/s | - | - |
| 1777866617 | 13.89° C | 65% | 1014.3 hPa | 0 mm | 0 m/s | - | - |
| 1777866305 | 13.89° C | 66% | 1014.3 hPa | 0 mm | 0.45 m/s, 228° | - | - |
| 1777866017 | 13.89° C | 67% | 1014.5 hPa | 0 mm | 0 m/s | - | - |
| 1777865705 | 13.89° C | 66% | 1014.6 hPa | 0 mm | 0 m/s | - | - |
| 1777865418 | 13.89° C | 64% | 1014.6 hPa | 0 mm | 0 m/s | - | - |
| 1777865105 | 13.89° C | 63% | 1014.6 hPa | 0 mm | 0 m/s | - | - |
| 1777864818 | 13.89° C | 65% | 1014.6 hPa | 0 mm | 0 m/s | - | - |
| 1777864505 | 13.89° C | 65% | 1014.6 hPa | 0 mm | 0 m/s | - | - |
| 1777864218 | 13.89° C | 64% | 1014.6 hPa | 0 mm | 0 m/s | - | - |
| 1777863905 | 13.89° C | 64% | 1014.5 hPa | 0 mm | 0 m/s | - | - |
| 1777863618 | 13.89° C | 64% | 1014.5 hPa | 0 mm | 0 m/s | - | - |
| 1777863305 | 13.89° C | 64% | 1014.7 hPa | 0 mm | 0 m/s | - | - |
| 1777863005 | 15° C | 62% | 1014.7 hPa | 0 mm | 0 m/s | - | - |
| 1777862705 | 15° C | 61% | 1014.5 hPa | 0 mm | 0 m/s | - | - |
* Rain latest hour (hover to see other rain measurements)
** Current wind speed in m/s (hover to see current wind gust speed)